Theta_e
302 295 293 297 300 301 301 298 298 301 305 302 300 302 303 306 309 310 317 318 322 324 326 324 322 323 324 326 325 325 325 330 331 334 335 335 335 338 342 343 344 350 348 348
298 294 301 305 304 303 301 297 297 301 304 299 300 299 301 305 306 306 306 312 311 323 326 325 323 322 323 326 327 327 327 335 332 332 336 335 335 336 341 342 342 349 348 347
297 302 307 305 302 303 298 297 298 298 302 302 300 298 301 305 306 307 308 309 311 316 325 325 325 324 323 326 328 328 333 335 336 335 335 335 336 337 336 339 339 344 349 349
299 305 306 303 302 301 295 303 303 302 298 292 300 290 299 303 303 305 305 308 316 321 325 326 326 324 327 325 331 329 332 337 335 337 336 334 334 333 334 336 337 339 347 349
302 304 303 301 303 304 299 304 304 303 297 295 297 292 297 302 301 303 308 314 318 323 327 329 329 334 336 334 330 332 330 334 335 333 336 336 334 335 334 335 334 337 341 347
306 310 307 304 307 306 306 302 302 300 295 289 295 294 295 299 306 310 314 316 321 325 327 329 332 334 335 337 338 336 332 331 332 336 333 330 332 333 333 334 333 335 341 345
304 305 307 309 302 303 301 297 289 289 288 289 299 297 296 308 312 315 315 319 321 325 326 326 329 331 333 333 334 336 340 335 336 336 335 336 332 329 330 329 332 332 337 344
298 298 305 308 303 299 299 298 290 286 288 294 301 298 303 317 319 319 319 319 320 320 322 321 322 327 332 333 330 328 330 336 340 341 339 339 338 337 334 334 333 333 335 339
300 303 309 310 309 305 300 296 301 295 295 292 296 306 313 317 317 318 318 319 318 316 318 318 319 319 321 322 321 321 321 327 328 330 330 333 342 345 341 340 336 336 336 337
306 298 308 309 309 307 301 305 295 295 289 288 294 298 301 310 313 315 314 315 315 315 316 316 316 316 316 316 317 318 317 318 322 320 322 325 330 335 336 343 341 337 339 337
304 301 303 307 302 301 301 297 299 298 296 290 289 298 312 311 313 312 313 314 313 313 314 314 315 315 315 316 316 317 316 316 316 318 317 316 322 328 331 330 336 345 344 342
309 303 298 302 308 309 304 301 301 294 293 295 294 296 315 314 315 315 314 316 315 316 314 315 315 315 313 312 312 312 314 313 315 317 316 316 317 319 324 328 332 334 336 346
310 300 293 296 300 306 304 306 305 303 300 295 293 296 314 315 313 314 312 312 312 310 309 313 314 312 311 311 311 311 311 311 313 315 315 315 316 316 317 321 328 334 334 335
314 303 299 294 298 301 300 304 305 301 296 297 297 299 311 311 310 312 311 311 308 307 307 310 308 308 309 309 310 310 310 311 311 314 313 314 315 317 317 319 320 327 329 330
308 298 301 302 305 304 304 303 303 299 300 296 298 298 301 301 302 303 304 305 306 306 306 307 307 307 308 308 309 310 310 311 313 312 312 312 315 318 318 318 319 323 325 326
308 300 302 300 305 303 300 302 301 300 300 298 297 298 302 303 303 303 303 305 304 305 307 307 308 308 308 308 309 310 311 311 312 311 312 313 314 316 315 317 318 320 320 321
304 300 297 293 302 300 294 299 300 301 301 300 295 298 302 300 302 300 302 304 305 306 307 307 308 308 309 310 311 312 314 315 314 314 315 315 315 315 315 316 316 318 318 318
299 299 297 292 296 287 298 305 306 301 302 303 302 301 302 301 302 303 305 304 305 307 309 309 309 309 310 312 312 314 314 313 313 313 314 314 314 315 314 315 316 316 317 317
304 300 293 290 290 296 299 302 302 299 297 302 300 301 302 302 301 301 307 307 306 307 308 309 310 310 310 311 313 313 314 314 313 313 312 313 314 313 313 312 312 317 318 316
306 303 296 293 288 287 296 302 305 303 291 302 301 300 301 301 294 298 306 308 307 308 307 308 308 309 309 310 312 313 313 313 313 313 314 315 314 313 312 312 312 314 318 317
294 295 292 291 290 295 302 305 305 290 291 301 302 301 301 298 300 304 306 306 307 307 308 309 308 308 310 312 313 312 312 312 314 315 316 315 314 313 313 312 312 314 314 316
295 292 291 293 290 288 304 303 296 298 300 302 303 303 302 303 304 305 305 305 306 306 306 308 308 308 310 311 312 311 311 314 316 315 315 314 314 315 315 313 313 313 314 314
293 298 296 294 294 301 302 300 303 303 302 303 301 303 302 303 303 304 304 304 305 305 306 308 308 309 310 312 311 309 310 312 313 313 313 314 314 314 314 313 312 312 312 312
301 303 295 295 299 301 303 305 306 306 304 305 305 302 303 302 304 306 304 304 304 305 307 308 307 308 308 309 309 308 309 311 311 310 311 312 312 312 314 314 313 312 311 311
298 298 297 296 299 302 304 304 305 305 307 306 305 305 303 304 305 302 302 302 304 307 309 310 309 307 306 308 307 308 310 311 310 311 311 312 313 312 312 312 312 312 313 311
298 297 294 293 300 299 300 303 307 305 304 304 303 304 307 305 302 302 301 302 303 305 308 307 306 307 307 307 307 308 310 309 309 308 310 311 311 312 311 311 311 307 302 299
Wind_Speed
7 3 7 14 13 15 9 8 8 8 8 8 6 4 2 3 2 5 10 12 17 23 19 19 18 16 17 13 13 11 10 8 8 3 4 3 4 3 3 4 6 10 9 8
3 9 14 12 11 12 8 4 8 10 8 4 7 7 5 8 7 6 2 8 8 14 17 17 18 17 18 16 16 11 11 10 8 7 4 3 3 3 3 4 4 7 10 11
9 12 15 14 4 4 3 4 7 8 8 8 6 10 8 10 6 6 7 3 7 8 20 20 19 18 17 16 18 17 14 15 11 7 3 1 1 2 4 3 4 5 10 11
10 14 9 5 4 3 3 9 11 9 3 4 5 6 10 9 11 6 7 8 15 22 13 9 6 6 14 17 13 16 15 16 16 15 11 9 9 9 4 6 4 6 7 8
11 10 6 4 4 5 9 5 5 6 4 5 9 4 12 7 7 7 10 15 17 23 21 20 13 17 9 6 2 6 13 15 15 16 15 14 14 11 5 6 6 7 7 10
9 6 2 1 3 7 6 5 5 5 2 4 9 6 10 8 15 12 12 14 16 18 19 18 17 17 15 14 12 1 5 4 3 6 5 9 8 10 7 10 7 7 9 10
10 10 5 5 4 3 4 5 4 5 2 6 7 1 9 10 15 19 16 15 13 15 16 15 16 14 13 11 9 9 8 4 5 4 3 5 7 5 7 7 6 7 8 9
6 11 12 7 6 7 8 10 7 3 1 2 7 5 4 20 19 19 18 16 16 14 13 14 13 11 13 11 9 10 12 9 9 2 6 6 9 8 10 9 7 7 10 9
4 10 9 10 5 5 5 4 12 2 3 5 2 11 13 17 14 15 16 16 13 11 11 12 13 11 11 14 13 10 11 9 8 6 4 8 3 7 12 16 13 10 12 6
1 4 2 6 7 7 1 3 6 5 2 3 4 4 7 13 14 13 11 12 11 10 13 12 11 10 10 9 8 11 10 7 6 8 7 7 7 6 6 7 12 13 13 12
5 5 9 5 2 3 7 2 1 4 5 3 2 4 2 10 13 14 12 10 9 9 9 8 9 9 10 10 10 8 8 8 7 7 7 8 6 8 9 6 5 7 13 14
1 4 2 6 10 6 5 1 6 6 6 1 4 5 7 13 11 11 10 8 7 8 7 8 8 9 9 8 8 8 8 8 6 5 4 5 8 7 7 11 12 7 8 10
3 1 3 10 9 9 4 6 2 5 4 1 4 5 6 13 10 9 10 10 10 11 10 12 10 9 8 8 8 8 8 7 7 8 7 7 7 7 8 8 8 11 9 11
5 3 4 6 4 3 7 9 5 5 4 4 6 3 9 9 10 11 10 9 9 8 11 9 8 7 7 6 6 6 7 6 7 6 7 8 8 8 8 8 8 7 7 7
5 1 4 6 9 8 8 9 9 6 5 5 4 5 6 7 9 7 8 11 13 11 10 7 7 7 7 6 6 6 6 7 5 7 7 9 8 8 8 8 8 8 7 7
2 1 7 5 9 10 11 11 9 10 10 7 5 11 8 8 9 10 10 13 10 9 9 8 8 8 8 8 7 7 7 7 7 9 8 8 9 8 8 11 9 8 7 7
5 3 3 4 6 10 8 5 7 6 10 2 5 6 8 9 9 8 9 8 7 6 5 6 7 7 7 8 7 7 9 9 12 14 13 13 14 16 14 9 9 8 8 7
3 3 2 4 5 3 10 5 6 19 14 15 13 9 9 7 7 10 8 7 5 5 6 7 7 7 9 10 9 11 10 11 13 13 12 13 14 13 13 15 15 8 7 8
7 5 1 3 3 10 11 6 5 4 6 9 8 8 7 6 2 5 9 7 5 7 7 7 9 10 10 12 12 12 12 12 14 15 15 14 13 14 14 15 15 13 10 9
8 8 7 2 2 4 2 7 10 4 3 6 8 8 9 10 7 5 12 12 11 7 6 9 8 11 11 11 12 13 13 13 14 15 15 13 13 14 14 14 15 15 8 10
4 2 7 5 5 4 4 8 6 1 4 5 8 8 9 6 0 5 8 8 7 7 9 10 7 9 11 12 10 11 13 14 15 16 15 14 14 14 14 14 12 13 13 9
8 7 5 4 5 8 4 6 4 5 2 6 8 6 6 5 7 7 8 6 7 8 9 9 7 7 9 10 11 13 14 16 15 15 16 14 13 12 12 15 14 14 13 11
1 5 6 6 4 7 6 9 7 6 7 6 5 5 3 5 7 8 5 6 6 7 9 7 7 9 7 9 12 13 15 16 15 15 15 13 14 14 14 14 14 12 13 10
5 3 4 6 4 8 7 12 10 9 6 5 5 2 5 6 7 3 3 3 5 6 7 7 8 7 8 11 12 12 14 15 16 15 15 14 13 14 13 10 9 8 10 9
1 3 2 2 6 12 10 9 7 7 7 5 5 5 6 8 4 4 4 5 5 7 9 9 7 8 9 13 13 16 16 16 15 14 15 12 11 12 12 11 9 10 11 9
3 0 3 3 4 6 5 5 9 6 2 3 3 6 7 7 7 7 6 5 4 6 6 7 9 9 12 12 15 14 14 15 15 13 12 10 9 9 9 10 10 12 15 17
Wind_Direction
212 144 216 224 217 230 248 264 269 299 327 26 0 329 258 246 294 278 229 199 181 185 179 172 170 163 160 156 158 159 144 170 162 139 162 180 214 232 250 203 202 179 182 181
303 221 236 232 237 231 263 339 320 315 319 350 310 294 272 296 256 255 215 207 199 190 164 171 171 164 166 162 166 154 160 154 174 179 177 167 199 235 235 226 200 186 181 189
207 240 230 240 294 352 7 312 300 271 305 335 355 332 307 275 241 253 292 152 62 106 170 173 172 171 164 164 170 174 169 159 165 165 154 190 126 301 246 256 234 197 203 189
219 251 217 205 260 298 282 245 245 252 339 281 74 278 283 250 236 234 253 63 72 58 118 75 71 147 176 177 170 175 174 173 173 166 177 184 209 217 209 224 218 224 198 198
252 225 256 270 197 203 232 280 5 2 7 26 316 26 275 307 195 227 89 89 84 84 81 65 86 92 95 102 266 215 191 187 184 188 181 189 197 202 196 211 213 218 213 200
268 283 270 208 253 221 279 8 352 347 34 341 248 175 284 272 104 94 81 86 89 87 88 86 87 84 74 57 45 120 209 259 332 269 249 224 207 212 208 220 222 220 218 212
285 266 220 162 314 272 134 55 347 338 13 211 264 17 219 96 101 111 97 73 75 83 78 79 92 87 82 71 49 40 41 142 177 238 242 255 290 266 257 245 243 247 228 225
251 270 205 163 179 203 182 156 167 236 202 232 296 47 25 76 62 66 67 71 69 69 73 68 67 76 82 83 71 51 40 58 45 256 292 231 218 236 239 228 230 243 239 235
2 331 124 140 175 162 298 157 222 148 296 46 144 74 56 75 74 71 70 63 57 61 70 69 59 59 65 61 52 48 42 36 48 54 36 39 328 259 248 247 235 238 245 252
35 357 107 146 58 335 212 239 21 357 116 261 314 149 162 117 110 91 72 58 49 55 52 55 51 52 53 61 60 43 29 46 35 23 21 5 345 338 355 301 256 239 238 244
67 83 298 25 155 321 329 279 344 124 129 173 345 317 344 113 108 100 82 68 59 53 58 55 54 46 48 40 32 34 26 6 13 21 2 352 347 335 337 339 338 288 257 238
54 114 352 282 306 308 308 345 120 110 303 5 135 283 112 102 106 100 95 92 82 71 69 77 72 71 57 45 24 10 2 356 354 337 346 324 326 334 331 330 326 324 330 290
326 48 36 335 338 11 0 6 39 111 90 220 112 267 86 93 86 92 90 65 57 51 34 39 33 38 43 35 15 1 346 336 346 327 326 321 306 303 305 306 308 312 321 322
60 21 132 196 222 332 322 319 330 130 122 225 209 156 100 58 63 56 55 58 58 49 44 51 35 26 17 5 347 323 314 323 304 321 332 313 295 284 276 282 297 296 294 302
89 75 10 305 305 316 297 305 309 316 232 168 256 64 94 88 76 56 47 38 49 48 38 30 14 357 341 332 318 304 293 296 299 302 294 280 280 277 278 276 270 280 297 307
34 45 26 322 312 302 287 274 278 275 279 277 238 111 119 83 67 45 44 55 46 25 14 3 351 338 328 320 316 317 314 312 314 309 291 286 280 275 278 273 262 257 270 283
124 114 61 272 344 347 312 249 258 245 43 46 95 138 86 67 65 48 71 60 43 17 349 317 309 331 328 332 326 345 338 331 325 316 307 313 316 312 293 267 264 251 252 257
95 81 93 262 338 252 248 343 109 82 46 51 75 69 67 59 40 66 53 45 17 6 10 359 345 334 343 330 342 331 327 322 316 307 307 309 306 300 314 316 306 266 245 247
149 131 167 179 228 285 326 12 359 38 52 32 61 55 50 34 298 131 33 27 16 6 2 360 346 342 333 327 323 319 315 310 310 308 302 302 300 301 299 300 299 305 287 272
156 147 137 181 254 276 75 41 -0 24 77 24 49 33 28 17 27 340 358 11 357 342 342 339 331 327 317 319 313 308 306 305 303 305 301 298 301 297 292 289 292 288 275 288
117 147 174 192 216 229 20 36 341 50 189 15 47 45 38 42 349 298 344 321 318 349 350 334 340 317 309 304 307 310 310 306 306 306 299 294 291 285 285 282 284 283 279 262
167 154 198 210 222 242 330 47 80 166 93 73 68 60 40 13 330 303 285 342 6 346 333 312 312 308 304 323 322 323 321 319 313 312 302 292 291 287 287 285 282 280 277 268
154 161 152 137 181 151 103 133 137 98 92 65 69 74 356 290 277 284 27 10 347 330 316 304 312 315 325 337 344 329 324 323 318 318 310 301 295 293 291 286 281 282 283 276
59 20 92 87 122 151 133 86 86 82 71 43 53 329 283 289 301 20 23 6 342 307 305 325 326 323 342 344 339 334 325 323 322 315 311 307 303 297 293 281 275 277 276 270
200 61 76 102 79 91 68 80 83 79 70 46 1 329 315 325 337 310 51 18 330 328 331 330 342 339 355 345 339 340 329 329 326 319 324 317 309 305 305 296 285 277 269 249
48 6 131 160 96 100 96 72 92 80 24 39 316 317 298 315 63 41 16 342 325 327 337 5 349 359 344 338 340 334 335 329 324 327 324 324 323 330 325 319 313 296 270 283